{"data":{"norad_id":36402,"intl_designator":"2010-007C","name":"COSMOS 2460 (732)","alt_names":[],"object_type":"PAYLOAD","status":"ACTIVE","operator":null,"country":"CIS","launch_date":"2010-03-01","launch_site_code":"TYMSC","launch_vehicle":null,"mission":null,"orbit_class":"UNKNOWN","rcs_meters":4.7754,"size_class":null,"mass_kg":null,"dimensions":null,"purposes":["nav"],"wikipedia_slug":null,"has_3d_model":false,"image_url":null,"decayed_at":null,"tle_current":{"epoch":"2026-09-17T03:32:26.256768Z","epoch_age_seconds":304106,"freshness":"STALE","line1":"1 36402U 10007C   26260.14752612 -.00000047  00000+0  00000+0 0  9997","line2":"2 36402  65.3621 311.3508 0002511 218.2925 155.7385  2.13101742128690","mean_motion":2.13101742,"eccentricity":0.0002511,"inclination_deg":65.3621,"raan_deg":311.3508,"arg_perigee_deg":218.2925,"mean_anomaly_deg":155.7385,"bstar":0,"rev_number":12869,"period_min":675.7335658007,"perigee_km":19123.502945619,"apogee_km":19136.313085825,"semimajor_km":25508.045015722,"source":"CELESTRAK","updated_at":"2026-09-20T09:00:46.274678Z"}}}